Tomahawk, WI

3:13 AM CST on February 21, 2017 (GMT -0600)
Tomahawk

Weather History for KTKV - June, 2014

Change the Weather History Date:

Friday, June 20, 2014

  Actual Average (KRRL) Record (KRRL)
Temperature  
Mean Temperature 64 °F -  
Max Temperature 72 °F 75 °F 97 °F (1933)
Min Temperature 57 °F 51 °F 36 °F (1992)
Growing Degree Days 14 (Base 50)    
Moisture  
Dew Point 59 °F    
Average Humidity 90    
Maximum Humidity 96    
Minimum Humidity 71    
Precipitation  
Precipitation 0.28 in - - ()
Sea Level Pressure  
Sea Level Pressure 30.01 in    
Wind  
Wind Speed 2 mph (ESE)    
Max Wind Speed 6 mph    
Max Gust Speed -    
Visibility 6 miles    
Events Rain    
Averages and records for this station are not official NWS values.
T = Trace of Precipitation, MM = Missing Value Source: NWS Daily Summary

Daily Weather History Graph

Daily Weather History Graph

Search for Another Location

Airport or City:

Trip Planner

Search our weather history database for the weather conditions in past years. The results will help you decide how hot, cold, wet, or windy it might be!

Date:

Astronomy

Jun. 20, 2014 Rise Set
Actual Time 5:10 AM CDT 8:51 PM CDT
Civil Twilight 4:32 AM CDT 9:29 PM CDT
Nautical Twilight 3:41 AM CDT 10:20 PM CDT
Astronomical Twilight 2:32 AM CDT 11:29 PM CDT
Moon 1:06 AM CDT (6/20) 2:10 PM CDT (6/20)
Length of Visible Light 16h 56m
Length of Day
15h 40m
Last Quarter, 40% of the Moon is Illuminated
Jun 20
Last Quarter
Jun 27
New
Jul 5
First Quarter
Jul 12
Full
Jul 18
Last Quarter

Hourly Weather History & Observations

Time (CDT) Temp. Dew Point Humidity Pressure Visibility Wind Dir Wind Speed Gust Speed Precip Events Conditions
12:15 AM 57.7 °F 55.6 °F 92% 30.06 in 5.0 mi East 4.6 mph - 0.01 in Rain Light Rain
12:35 AM 57.7 °F 55.8 °F 93% 30.06 in 5.0 mi Calm Calm - 0.06 in Rain Rain
12:55 AM 57.6 °F 55.6 °F 93% 30.05 in 5.0 mi East 3.5 mph - 0.09 in Rain Rain
1:15 AM 57.6 °F 55.6 °F 93% 30.05 in 5.0 mi East 3.5 mph - 0.01 in Rain Light Rain
1:35 AM 57.6 °F 55.6 °F 93% 30.05 in 5.0 mi Calm Calm - 0.01 in   Drizzle
1:55 AM 57.4 °F 55.6 °F 94% 30.04 in 7.0 mi Calm Calm - 0.01 in   Overcast
2:15 AM 57.6 °F 55.8 °F 94% 30.04 in 7.0 mi Calm Calm - N/A Rain Rain
2:35 AM 57.6 °F 55.8 °F 94% 30.04 in 5.0 mi Calm Calm - 0.03 in Rain Rain
2:55 AM 57.6 °F 55.9 °F 94% 30.03 in 4.0 mi Calm Calm - 0.04 in Rain Light Rain
3:15 AM 57.6 °F 56.3 °F 96% 30.03 in 4.0 mi Calm Calm - N/A   Heavy Drizzle
3:35 AM 57.6 °F 56.1 °F 95% 30.04 in 4.0 mi Calm Calm - 0.01 in   Drizzle
3:55 AM 57.2 °F 55.6 °F 94% 30.03 in 3.0 mi Calm Calm - 0.02 in   Heavy Drizzle
4:15 AM 57.2 °F 55.8 °F 95% 30.02 in 4.0 mi Calm Calm - N/A   Light Drizzle
4:35 AM 57.2 °F 55.8 °F 95% 30.01 in 5.0 mi Calm Calm - N/A   Overcast
4:55 AM 57.2 °F 55.9 °F 96% 30.01 in 7.0 mi Calm Calm - N/A   Overcast
5:55 AM 57.2 °F 55.9 °F 96% 30.02 in 4.0 mi Calm Calm - 0.03 in Rain Rain
6:15 AM 57.2 °F 55.8 °F 95% 30.02 in 3.0 mi Calm Calm - 0.03 in Rain Rain
6:35 AM 57.2 °F 55.8 °F 95% 30.02 in 3.0 mi Calm Calm - 0.07 in Rain Rain
6:55 AM 57.0 °F 55.6 °F 95% 30.01 in 4.0 mi ESE 3.5 mph - 0.09 in Rain Rain
7:15 AM 57.2 °F 55.8 °F 95% 30.02 in 5.0 mi Calm Calm - N/A   Overcast
7:35 AM 57.4 °F 56.3 °F 96% 30.02 in 7.0 mi Calm Calm - N/A   Overcast
7:55 AM 57.6 °F 56.3 °F 96% 30.01 in 10.0 mi ESE 4.6 mph - N/A   Overcast
8:15 AM 57.9 °F 56.3 °F 94% 30.01 in 10.0 mi Calm Calm - N/A   Overcast
8:35 AM 58.1 °F 56.5 °F 94% 30.01 in 10.0 mi SE 3.5 mph - N/A   Overcast
8:55 AM 58.5 °F 56.8 °F 94% 30.01 in 10.0 mi Calm Calm - N/A   Overcast
9:15 AM 59.0 °F 57.2 °F 94% 30.01 in 7.0 mi ESE 3.5 mph - N/A   Overcast
9:35 AM 59.0 °F 57.2 °F 94% 30.01 in 4.0 mi Calm Calm - N/A   Overcast
9:55 AM 59.7 °F 58.1 °F 94% 30.00 in 4.0 mi Calm Calm - N/A   Overcast
10:15 AM 60.1 °F 58.3 °F 94% 30.00 in 3.0 mi Calm Calm - N/A   Overcast
10:35 AM 60.1 °F 58.5 °F 94% 30.00 in 2.5 mi Calm Calm - N/A   Overcast
10:55 AM 61.0 °F 59.2 °F 94% 30.01 in 3.0 mi Calm Calm - N/A   Overcast
11:15 AM 61.3 °F 59.2 °F 93% 30.01 in 5.0 mi Calm Calm - N/A   Overcast
11:35 AM 62.1 °F 59.5 °F 91% 30.01 in 4.0 mi Calm Calm - N/A   Overcast
11:55 AM 63.0 °F 60.1 °F 90% 30.01 in 7.0 mi Calm Calm - N/A   Overcast
12:15 PM 63.5 °F 60.1 °F 89% 30.01 in 10.0 mi Calm Calm - N/A   Overcast
12:35 PM 63.9 °F 60.8 °F 90% 30.01 in 10.0 mi Calm Calm - N/A   Overcast
12:55 PM 63.9 °F 60.6 °F 89% 30.02 in 10.0 mi Calm Calm - N/A   Overcast
1:15 PM 64.8 °F 61.2 °F 88% 30.01 in 10.0 mi Calm Calm - N/A   Overcast
1:35 PM 65.7 °F 61.3 °F 86% 30.01 in 10.0 mi Calm Calm - N/A   Overcast
1:55 PM 65.5 °F 61.3 °F 86% 30.01 in 10.0 mi Calm Calm - N/A   Overcast
2:55 PM 65.8 °F 62.1 °F 88% 30.01 in 10.0 mi Calm Calm - N/A   Overcast
3:15 PM 66.2 °F 62.6 °F 88% 30.01 in 7.0 mi WNW 3.5 mph - N/A Rain Light Rain
3:55 PM 67.6 °F 62.8 °F 84% 30.01 in 10.0 mi North 3.5 mph - N/A   Overcast
4:15 PM 68.0 °F 62.8 °F 83% 30.00 in 10.0 mi Calm Calm - N/A   Overcast
4:35 PM 70.5 °F 63.7 °F 79% 29.98 in 10.0 mi Calm Calm - N/A   Scattered Clouds
5:15 PM 71.4 °F 63.7 °F 76% 29.98 in 10.0 mi SE 4.6 mph - N/A   Mostly Cloudy
5:35 PM 70.2 °F 63.3 °F 79% 29.97 in 10.0 mi Calm Calm - N/A   Mostly Cloudy
5:55 PM 72.1 °F 63.1 °F 73% 29.96 in 10.0 mi Calm Calm - N/A   Scattered Clouds
6:15 PM 71.6 °F 62.6 °F 73% 29.95 in 10.0 mi ENE 4.6 mph - N/A   Clear
6:35 PM 72.3 °F 62.4 °F 71% 29.95 in 10.0 mi East 3.5 mph - N/A   Clear
6:55 PM 72.0 °F 62.6 °F 72% 29.95 in 10.0 mi East 3.5 mph - N/A   Clear
7:15 PM 71.6 °F 62.1 °F 72% 29.96 in 10.0 mi ESE 3.5 mph - N/A   Clear
8:55 PM 64.8 °F 61.9 °F 90% 29.97 in 7.0 mi ESE 3.5 mph - N/A   Clear
9:15 PM 63.9 °F 61.7 °F 93% 29.97 in 7.0 mi SE 4.6 mph - N/A   Mostly Cloudy
9:35 PM 63.5 °F 61.3 °F 93% 29.98 in 5.0 mi ESE 3.5 mph - N/A   Overcast
9:55 PM 63.1 °F 61.2 °F 93% 29.99 in 5.0 mi SE 4.6 mph - N/A   Overcast
10:15 PM 62.8 °F 60.8 °F 93% 29.98 in 5.0 mi ESE 5.8 mph - N/A   Overcast
10:35 PM 62.1 °F 60.3 °F 94% 29.98 in 3.0 mi ESE 3.5 mph - N/A   Overcast
10:55 PM 61.3 °F 59.9 °F 95% 29.97 in 1.2 mi SE 3.5 mph - N/A   Overcast
11:15 PM 60.8 °F 59.4 °F 95% 29.97 in 1.2 mi ESE 4.6 mph - N/A   Overcast
11:35 PM 60.1 °F 59.0 °F 96% 29.97 in 1.0 mi Calm Calm - N/A   Overcast
11:55 PM 59.5 °F 58.3 °F 96% 29.97 in 1.2 mi ESE 3.5 mph - N/A   Overcast